User: anonymous   Login
Location: Maiden_LMO
(35.5760°N, 81.2120°W)
Time: 16:54:59
(UTC-04:00)
Language:

ADEOS II - Orbit

View from above orbital plane
View from above orbital plane
View from above satellite
View from above satellite

Ground track
Ground track

The orbit data is extracted from the following two-line orbital elements,

1 27597U 02056A   15123.54360855  .00000187  00000-0  93647-4 0  9990
2 27597 098.2855 119.3606 0002345 091.2823 016.9922 14.27069185644785
Epoch (UTC): 03 May 2015 13:02:47
Eccentricity: 0.0002345
inclination: 98.2855°
perigee height: 800 km
apogee height: 803 km
right ascension of ascending node: 119.3606°
argument of perigee: 91.2823°
revolutions per day: 14.27069185
mean anomaly at epoch: 16.9922°
orbit number at epoch: 64478

The dashed part of the orbit path shows where the satellite is in the earth's shadow,  

DLR